Regional Weather Roundup
Issued by NWS

Home | Current Version | Previous Version | Graphics & Text | Print | Product List | Glossary On
Versions: 1 2 3 4 5 6 7 8 9 10 11 12 13 14 15 16 17 18 19 20 21 22 23 24 25 26 27 28 29 30 31 32 33 34 35 36 37 38 39 40 41 42 43 44 45 46 47 48 49 50
000
ASUS43 KMPX 151610
RWRMN
WEATHER ROUNDUP FOR MINNESOTA
NATIONAL WEATHER SERVICE TWIN CITIES/CHANHASSEN MN
1100 AM CDT MON SEP 15 2014


NOTE: "FAIR" INDICATES FEW OR NO CLOUDS BELOW 12,000 FEET WITH NO
SIGNIFICANT WEATHER AND/OR OBSTRUCTIONS TO VISIBILITY. N/A MEANS
CURRENT SKY AND/OR WEATHER CONDITIONS ARE NOT AVAILABLE.

MNZ060>063-068>070-151700-
   Twin Cities Metro

CITY           SKY/WX    TMP DP  RH WIND       PRES   REMARKS
TWIN CITIES    PTSUNNY   56  47  71 NW7       30.21S
ST PAUL        PTSUNNY   57  48  72 VRB7      30.22R
CRYSTAL        MOSUNNY   56  44  64 N5        30.21R
LAKEVILLE      PTSUNNY   55  46  71 NW7       30.21R
EDEN PRAIRIE   MOSUNNY   57  47  69 N9        30.21R
SOUTH ST PAUL  PTSUNNY   55  46  72 N7        30.21R
LAKE ELMO      PTSUNNY   55  46  71 N8        30.22R
$$
MNZ001>005-007-008-013>017-022>024-027-028-151700-
   Northwest Minnesota

CITY           SKY/WX    TMP DP  RH WIND       PRES   REMARKS
BEMIDJI        SUNNY     53  35  50 W9        30.22S
HALLOCK        SUNNY     55  41  58 W7        30.19S
ROSEAU         SUNNY     57  43  58 SW9       30.18S
WARROAD        SUNNY     54  43  66 W9        30.17F
THIEF RVR FALL MOSUNNY   54  39  58 SW7       30.22S
CROOKSTON      MOSUNNY   55  41  58 SW7       30.24S
FOSSTON        CLOUDY    55  32  41 CALM      30.23S
DETROIT LAKES  SUNNY     54  36  50 NW6       30.26R
MOORHEAD       SUNNY     55  37  50 CALM      30.26S
PARK RAPIDS    SUNNY     53  35  50 NW13      30.23S
MAHNOMEN       FAIR      54  33  45 W7        30.24S
$$
MNZ006-009>011-018-025>026-151700-
   North Central Minnesota

CITY           SKY/WX    TMP DP  RH WIND       PRES   REMARKS
BAUDETTE       MOSUNNY   53  39  59 SW7       30.18S
FLAG ISLAND    CLOUDY    54  39  58 W10       30.13F
INTL FALLS     SUNNY     52  37  56 W12       30.17S
WASKISH        SUNNY     54  43  66 CALM      30.21R
BIG FORK       MOSUNNY   54  37  54 W5        30.21R
LONGVILLE      SUNNY     54  34  47 N6        30.22R
GRAND RAPIDS   MOSUNNY   52  30  43 NW12      30.21S
CRANE LAKE     PTSUNNY   48  39  71 NW3       30.18S
ORR            SUNNY     52  36  54 NW9       30.16R
COOK           PTSUNNY   48  36  61 W9        30.18S
WALKER         FAIR      53  32  45 W9        30.22S
$$
MNZ012-019>021-037-151700-
   Northeast Minnesota

CITY           SKY/WX    TMP DP  RH WIND       PRES   REMARKS
DULUTH         MOSUNNY   53  34  48 NW13      30.17S
ELY            PTSUNNY   48  39  71 NW10G17   30.16S
HIBBING        CLOUDY    54  35  48 NW13G20   30.20R
EVELETH        MOSUNNY   52  37  58 NW13      30.19S
DULUTH HARBOR  MOSUNNY   55  37  50 NW6       30.19S
TWO HARBORS    MOSUNNY   54  37  54 NW9       30.15R
SILVER BAY     SUNNY     52  43  71 NW5       30.14S
GRAND MARAIS     N/A     55  42  61 S9        30.11S
G MARAIS ARPRT PTSUNNY   48  37  66 NW6       30.12R
$$
MNZ029>031-032-039>041-046>048-054>057-064-151700-
   West Central Minnesota

CITY           SKY/WX    TMP DP  RH WIND       PRES   REMARKS
FERGUS FALLS   SUNNY     55  39  54 NW10      30.27R
WHEATON        SUNNY     55  37  50 NW10      30.29R
MORRIS         SUNNY     57  43  58 NW9       30.25S
ALEXANDRIA     MOSUNNY   56  43  61 NW8       30.25S
ELBOW LAKE     FAIR      54  44  68 NW7       30.26S
WADENA         MOSUNNY   52  37  58 N6        30.24S
GLENWOOD       MOSUNNY   55  39  54 NW8       30.25R
APPLETON       SUNNY     59  41  51 NW9       30.25S
BENSON         SUNNY     57  43  58 N7        30.25S
ORTONVILLE     SUNNY     55  45  67 NW9       30.26S
MADISON        MOSUNNY   57  48  72 N5        30.26S
WILLMAR        FAIR      57  41  54 N7        30.25S
$$
MNZ033>034-036-042>043-049>051-058-059-151700-
   Central Minnesota

CITY           SKY/WX    TMP DP  RH WIND       PRES   REMARKS
ST CLOUD       CLOUDY    57  38  48 N9        30.23R
SAUK CENTRE    PTSUNNY   55  37  50 NW7       30.24S
PAYNESVILLE    MOSUNNY   53  40  60 W8        30.24S
AITKIN         SUNNY     57  39  51 NW9       30.21R
PINE RIVER     MOSUNNY   52  41  66 CALM      30.26S
BRAINERD       CLOUDY    52  40  63 N13       30.23S
STAPLES        CLOUDY    52  37  58 N9        30.24S
LONG PRAIRIE   CLOUDY    54  36  50 NW7       30.24S
LITTLE FALLS   SUNNY     54  37  54 NW3       30.23S
LITCHFIELD       N/A     57  45  62 N9        30.24R
BUFFALO        MOSUNNY   57  44  63 NW9       30.23S
MAPLE LAKE     SUNNY     58  47  66 N7        30.23S
$$
MNZ037-044-045-052-053-151700-
   East Central Minnesota

CITY           SKY/WX    TMP DP  RH WIND       PRES   REMARKS
PRINCETON      PTSUNNY   57  46  67 CALM      30.22R
MORA           SUNNY     55  41  58 N7        30.22S
CAMBRIDGE      SUNNY     57  45  62 N9        30.20R
RUSH CITY      MOSUNNY   55  43  63 N9        30.21S
MOOSE LAKE     SUNNY     54  36  50 N8        30.18S
HINCKLEY       FAIR      55  37  50 N10       30.20S
CLOQUET        SUNNY     54  36  50 NW9G17    30.18F
MCGREGOR       SUNNY     52  36  54 NW12G20   30.21S
$$
MNZ071>073-080-081-089-090-097-098-151700-
   Southwest Minnesota

CITY           SKY/WX    TMP DP  RH WIND       PRES   REMARKS
MONTEVIDEO     SUNNY     61  50  67 NE8       30.26S
GRANITE FALLS  SUNNY     56  45  65 NW6       30.26S
CANBY          PTSUNNY   55  44  65 N9        30.28R
MARSHALL       SUNNY     55  43  62 NW8       30.25S
REDWOOD FALLS  MOSUNNY   57  45  64 NW7       30.24R
OLIVIA         SUNNY     55  45  67 N8        30.24R
PIPESTONE      MOSUNNY   54  43  66 N7        30.26R
WINDOM         PTSUNNY   54  46  76 N10       30.25R
WORTHINGTON    MOSUNNY   54  45  71 N12       30.25S
JACKSON        CLOUDY    54  43  66 N10       30.24R
TRACY          MOSUNNY   56  46  70 N9        30.26S
SLAYTON        MOSUNNY   54  45  70 CALM      30.26S
$$
MNZ065>067-074>077-082>085-091>093-151700-
   South Central Minnesota

CITY           SKY/WX    TMP DP  RH WIND       PRES   REMARKS
MANKATO        PTSUNNY   54  45  71 NW6       30.22S
NEW ULM        MOSUNNY   55  46  71 NW8       30.23R
ST JAMES       PTSUNNY   55  46  71 N7        30.24R
FAIRMONT       CLOUDY    55  45  67 N7        30.23R
GLENCOE        MOSUNNY   56  45  67 N6        30.22S
FARIBAULT      MOSUNNY   55  50  82 W3        30.21S
OWATONNA       PTSUNNY   54  48  82 NW5       30.21S
WASECA         CLOUDY    50  45  81 NW6       30.23S
ALBERT LEA     PTSUNNY   54  48  82 NE8       30.20F
$$
MNZ078>079-086>088-094>096-151700-
   Southeast Minnesota

CITY           SKY/WX    TMP DP  RH WIND       PRES   REMARKS
ROCHESTER      CLOUDY    51  46  83 N9        30.21R
RED WING       MOSUNNY   55  48  76 N6        30.19S
STANTON        MOSUNNY   56  48  75 W5        30.19S
DODGE CENTER   CLOUDY    52  46  82 N5        30.20R
WINONA         LGT RAIN  52  48  87 NW5       30.19F
AUSTIN         CLOUDY    52  46  82 N5        30.20R
PRESTON        CLOUDY    48  48 100 NE8       30.19S
$$
ABBREVIATIONS USED IN REMARKS
   TC - TEMPERATURES IN CELSIUS
  WCI - WIND CHILL INDEX
   HX - HEAT INDEX
  VSB - VISIBILITY
$$



USA.gov is the U.S. government's official web portal to all federal, state and local government web resources and services.